軌道要素
Epoch 2017 May 7.0 TT = JDT 2457880.5
T 2017 May 20.73884 TT MPCW
q 2.4558772 (2000.0) P Q
n 0.12620719 Peri. 224.14226 +0.90020357 -0.40289245
a 3.9362257 Node 157.90919 +0.40596645 +0.91374325
e 0.3760832 Incl. 26.06788 -0.15755883 +0.05244950
P 7.81
From 148 observations 2001 Aug. 23-2017 Sept. 25, mean residual 0".8.
Nongravitational parameters A1 = +1.38, A2 = +0.0113.
|